Weather History for Forest City, IA

Change the Weather History Date:

Tuesday, January 3, 2012

  Actual Average Record
Temperature  
Mean Temperature 20 °F -  
Max Temperature 32 °F 23 °F 32 °F (2012)
Min Temperature 8 °F 5 °F -18 °F (2014)
Degree Days  
Heating Degree Days 45    
Moisture  
Dew Point 12 °F    
Average Humidity 72    
Maximum Humidity 92    
Minimum Humidity 48    
Precipitation  
Precipitation 0.00 in - - ()
Sea Level Pressure  
Sea Level Pressure 30.13 in    
Wind  
Wind Speed 7 mph (South)    
Max Wind Speed 23 mph    
Max Gust Speed 31 mph    
Visibility 10 miles    
Events      
Averages and records for this station are not official NWS values.
T = Trace of Precipitation, MM = Missing Value Source: NWS Daily Summary

Daily Weather History Graph

Daily Weather History Graph

Search for Another Location

Airport:

Trip Planner

Search our weather history database for the weather conditions in past years. The results will help you decide how hot, cold, wet, or windy it might be!

Date:

Astronomy

Jan. 03, 2012 Rise Set
Actual Time 7:46 AM CST 4:51 PM CST
Civil Twilight 7:14 AM CST 5:23 PM CST
Nautical Twilight 6:38 AM CST 5:59 PM CST
Astronomical Twilight 6:04 AM CST 6:33 PM CST
Moon 12:41 PM CST (1/3) 2:35 AM CST (1/3)
Length of Visible Light 10h 09m
Length of Day
9h 04m
Waxing Gibbous, 73% of the Moon is Illuminated
Jan 3
Waxing Gibbous
Jan 9
Full
Jan 16
Last Quarter
Jan 23
New
Jan 30
First Quarter

Hourly Weather History & Observations

Time (CST) Temp. Windchill Dew Point Humidity Pressure Visibility Wind Dir Wind Speed Gust Speed Precip Events Conditions
12:15 AM 10.4 °F - 6.8 °F 85% 30.43 in 10.0 mi Calm Calm - N/A   Clear
12:35 AM 12.2 °F - 6.8 °F 79% 30.43 in 10.0 mi Calm Calm - N/A   Clear
12:55 AM 12.2 °F - 6.8 °F 79% 30.42 in 10.0 mi Calm Calm - N/A   Clear
1:15 AM 12.2 °F - 8.6 °F 85% 30.42 in 10.0 mi Calm Calm - N/A   Clear
1:35 AM 12.2 °F - 8.6 °F 85% 30.41 in 10.0 mi Calm Calm - N/A   Clear
1:55 AM 10.4 °F 4.0 °F 8.6 °F 92% 30.40 in 10.0 mi South 3.5 mph - N/A   Clear
2:15 AM 10.4 °F 4.0 °F 5.0 °F 79% 30.40 in 10.0 mi SSE 3.5 mph - N/A   Clear
2:35 AM 8.6 °F 2.0 °F 5.0 °F 85% 30.39 in 10.0 mi South 3.5 mph - N/A   Clear
2:55 AM 8.6 °F 2.0 °F 5.0 °F 85% 30.38 in 10.0 mi SSE 3.5 mph - N/A   Clear
3:15 AM 8.6 °F 0.1 °F 5.0 °F 85% 30.37 in 10.0 mi South 4.6 mph - N/A   Clear
3:35 AM 8.6 °F 0.1 °F 5.0 °F 85% 30.36 in 10.0 mi South 4.6 mph - N/A   Clear
3:55 AM 8.6 °F 0.1 °F 5.0 °F 85% 30.33 in 10.0 mi SE 4.6 mph - N/A   Clear
4:15 AM 10.4 °F 4.0 °F 5.0 °F 79% 30.32 in 10.0 mi SE 3.5 mph - N/A   Clear
4:35 AM 8.6 °F 2.0 °F 5.0 °F 85% 30.32 in 10.0 mi SE 3.5 mph - N/A   Clear
4:55 AM 8.6 °F 0.1 °F 5.0 °F 85% 30.31 in 10.0 mi SE 4.6 mph - N/A   Clear
5:15 AM 8.6 °F -1.3 °F 5.0 °F 85% 30.31 in 10.0 mi SSE 5.8 mph - N/A   Clear
5:35 AM 10.4 °F -1.5 °F 5.0 °F 79% 30.28 in 10.0 mi SSE 8.1 mph - N/A   Clear
5:55 AM 10.4 °F -2.4 °F 6.8 °F 85% 30.28 in 10.0 mi SE 9.2 mph - N/A   Clear
6:15 AM 12.2 °F -1.0 °F 8.6 °F 85% 30.27 in 10.0 mi SSE 10.4 mph - N/A   Clear
6:35 AM 12.2 °F -0.2 °F 6.8 °F 79% 30.26 in 10.0 mi SSE 9.2 mph - N/A   Clear
6:55 AM 12.2 °F -2.5 °F 6.8 °F 79% 30.26 in 10.0 mi South 12.7 mph - N/A   Clear
7:15 AM 12.2 °F -0.2 °F 8.6 °F 85% 30.25 in 10.0 mi SSE 9.2 mph - N/A   Clear
7:35 AM 12.2 °F -1.0 °F 8.6 °F 85% 30.24 in 10.0 mi South 10.4 mph - N/A   Clear
8:15 AM 14.0 °F 1.2 °F 8.6 °F 79% 30.22 in 10.0 mi SSE 10.4 mph - N/A   Clear
8:35 AM 14.0 °F 0.5 °F 8.6 °F 79% 30.22 in 10.0 mi SSE 11.5 mph - N/A   Clear
8:55 AM 15.8 °F 0.9 °F 10.4 °F 79% 30.21 in 10.0 mi South 15.0 mph - N/A   Clear
9:35 AM 17.6 °F 2.2 °F 10.4 °F 73% 30.20 in 10.0 mi South 17.3 mph 20.7 mph N/A   Clear
9:55 AM 19.4 °F 4.5 °F 10.4 °F 68% 30.19 in 10.0 mi SSE 17.3 mph 21.9 mph N/A   Clear
10:15 AM 21.2 °F 6.4 °F 12.2 °F 68% 30.17 in 10.0 mi SSE 18.4 mph 25.3 mph N/A   Clear
10:35 AM 21.2 °F 6.8 °F 10.4 °F 63% 30.15 in 10.0 mi South 17.3 mph 25.3 mph N/A   Clear
11:15 AM 23.0 °F 7.6 °F 12.2 °F 63% 30.07 in 10.0 mi South 21.9 mph 27.6 mph N/A   Clear
11:35 AM 24.8 °F 9.6 °F 12.2 °F 59% 30.05 in 10.0 mi SSE 23.0 mph 29.9 mph N/A   Clear
11:55 AM 26.6 °F 12.4 °F 14.0 °F 59% 30.02 in 10.0 mi SSE 21.9 mph 26.5 mph N/A   Clear
12:15 PM 28.4 °F 14.4 °F 12.2 °F 51% 30.00 in 10.0 mi South 23.0 mph 29.9 mph N/A   Clear
12:35 PM 30.2 °F 16.8 °F 14.0 °F 51% 29.97 in 10.0 mi South 23.0 mph 31.1 mph N/A   Clear
12:55 PM 30.2 °F 17.1 °F 14.0 °F 51% 29.96 in 10.0 mi SSE 21.9 mph 28.8 mph N/A   Clear
1:15 PM 30.2 °F 18.5 °F 15.8 °F 55% 29.97 in 10.0 mi South 17.3 mph - N/A   Clear
1:35 PM 32.0 °F 22.5 °F 14.0 °F 48% 29.99 in 10.0 mi South 12.7 mph - N/A   Clear
1:55 PM 32.0 °F 21.2 °F 17.6 °F 55% 29.99 in 10.0 mi South 16.1 mph - N/A   Clear
2:15 PM 32.0 °F 21.6 °F 15.8 °F 51% 29.97 in 10.0 mi South 15.0 mph 23.0 mph N/A   Clear
2:35 PM 32.0 °F 20.5 °F 17.6 °F 55% 29.94 in 10.0 mi South 18.4 mph 23.0 mph N/A   Clear
2:55 PM 32.0 °F 21.6 °F 17.6 °F 55% 29.94 in 10.0 mi South 15.0 mph - N/A   Clear
3:35 PM 32.0 °F 23.6 °F 19.4 °F 60% 29.93 in 10.0 mi South 10.4 mph - N/A   Clear
3:55 PM 32.0 °F 24.2 °F 19.4 °F 60% 29.92 in 10.0 mi South 9.2 mph - N/A   Clear
4:15 PM 32.0 °F 25.6 °F 19.4 °F 60% 29.93 in 10.0 mi South 6.9 mph - N/A   Clear
4:35 PM 30.2 °F 22.6 °F 19.4 °F 64% 29.93 in 10.0 mi South 8.1 mph - N/A   Clear
4:55 PM 30.2 °F 23.4 °F 19.4 °F 64% 29.94 in 10.0 mi South 6.9 mph - N/A   Clear
5:15 PM 28.4 °F 24.6 °F 19.4 °F 69% 29.94 in 10.0 mi South 3.5 mph - N/A   Clear
5:35 PM 28.4 °F 22.2 °F 19.4 °F 69% 29.94 in 10.0 mi South 5.8 mph - N/A   Clear
5:55 PM 26.6 °F 21.2 °F 19.4 °F 74% 29.93 in 10.0 mi SSE 4.6 mph - N/A   Clear
6:15 PM 28.4 °F 21.2 °F 19.4 °F 69% 29.91 in 10.0 mi South 6.9 mph - N/A   Clear
6:35 PM 30.2 °F 22.6 °F 19.4 °F 64% 29.91 in 10.0 mi South 8.1 mph - N/A   Clear
6:55 PM 28.4 °F 20.4 °F 19.4 °F 69% 29.90 in 10.0 mi South 8.1 mph - N/A   Clear
7:15 PM 28.4 °F - 19.4 °F 69% 29.92 in 10.0 mi Calm Calm - N/A   Clear
7:35 PM 26.6 °F - 19.4 °F 74% 29.92 in 10.0 mi Calm Calm - N/A   Clear
7:55 PM 26.6 °F 20.0 °F 19.4 °F 74% 29.91 in 10.0 mi SSW 5.8 mph - N/A   Clear
8:15 PM 28.4 °F 20.4 °F 19.4 °F 69% 29.89 in 10.0 mi SSW 8.1 mph - N/A   Clear
8:35 PM 26.6 °F 20.0 °F 19.4 °F 74% 29.90 in 10.0 mi SW 5.8 mph - N/A   Clear
8:55 PM 24.8 °F 17.9 °F 19.4 °F 80% 29.90 in 10.0 mi WSW 5.8 mph - N/A   Clear
9:15 PM 26.6 °F 19.1 °F 19.4 °F 74% 29.89 in 10.0 mi SW 6.9 mph - N/A   Clear
9:55 PM 24.8 °F 20.5 °F 19.4 °F 80% 29.89 in 10.0 mi WSW 3.5 mph - N/A   Clear
10:15 PM 24.8 °F - 19.4 °F 80% 29.88 in 10.0 mi Calm Calm - N/A   Clear
10:35 PM 24.8 °F 19.1 °F 19.4 °F 80% 29.87 in 10.0 mi SW 4.6 mph - N/A   Clear
11:15 PM 24.8 °F 20.5 °F 19.4 °F 80% 29.88 in 10.0 mi West 3.5 mph - N/A   Clear
11:35 PM 24.8 °F 19.1 °F 19.4 °F 80% 29.89 in 10.0 mi WSW 4.6 mph - N/A   Clear
11:55 PM 23.0 °F 18.4 °F 19.4 °F 86% 29.89 in 10.0 mi WSW 3.5 mph - N/A   Clear